| time (UTC) | temp F | wind direction | speed MPH | gust MPH | rain 1hr in | rain 24hr in | rain mn in | humidity % | barometer mb |
| 20260905224128 | 60 | 0 | 1.0 | 0.0 | 0.00 | 0.35 | 0.00 | 75 | 988.0 |
| 20260905221128 | 60 | 0 | 2.0 | 0.0 | 0.00 | 0.35 | 0.00 | 75 | 988.0 |
| 20260905214128 | 60 | 0 | 2.0 | 0.0 | 0.00 | 0.35 | 0.35 | 74 | 987.0 |
| 20260905211128 | 62 | 0 | 3.0 | 0.0 | 0.00 | 0.35 | 0.35 | 70 | 988.0 |
| 20260905204128 | 63 | 0 | 1.0 | 0.0 | 0.00 | 0.35 | 0.35 | 67 | 988.0 |
| 20260905201128 | 64 | 0 | 1.0 | 0.0 | 0.00 | 0.35 | 0.35 | 63 | 987.0 |
| 20260905194128 | 67 | 0 | 2.0 | 0.0 | 0.00 | 0.35 | 0.35 | 56 | 987.0 |
| 20260905191128 | 68 | 0 | 1.0 | 0.0 | 0.00 | 0.35 | 0.35 | 53 | 986.0 |
| 20260905184128 | 68 | 0 | 2.0 | 0.0 | 0.00 | 0.35 | 0.35 | 53 | 986.0 |
| 20260905181128 | 69 | 0 | 2.0 | 0.0 | 0.00 | 0.35 | 0.35 | 50 | 986.0 |
| 20260905174128 | 70 | 0 | 4.0 | 0.0 | 0.00 | 0.35 | 0.35 | 51 | 986.0 |
| 20260905171128 | 71 | 0 | 1.0 | 0.0 | 0.00 | 0.35 | 0.35 | 50 | 985.0 |
| 20260905164128 | 73 | 0 | 3.0 | 0.0 | 0.00 | 0.35 | 0.35 | 46 | 986.0 |
| 20260905161128 | 74 | 0 | 1.0 | 0.0 | 0.00 | 0.35 | 0.35 | 47 | 985.0 |
| 20260905154128 | 76 | 0 | 5.0 | 0.0 | 0.00 | 0.35 | 0.35 | 45 | 985.0 |
| 20260905151128 | 77 | 0 | 5.0 | 0.0 | 0.00 | 0.35 | 0.35 | 43 | 985.0 |
| 20260905144128 | 78 | 0 | 4.0 | 0.0 | 0.00 | 0.35 | 0.35 | 43 | 985.0 |
| 20260905141128 | 78 | 0 | 8.0 | 0.0 | 0.00 | 0.35 | 0.35 | 42 | 985.0 |
| 20260905134128 | 77 | 0 | 13.0 | 0.0 | 0.00 | 0.35 | 0.35 | 44 | 985.0 |
| 20260905131128 | 76 | 0 | 5.0 | 0.0 | 0.00 | 0.35 | 0.35 | 45 | 986.0 |
| 20260905124128 | 75 | 0 | 6.0 | 0.0 | 0.00 | 0.35 | 0.35 | 50 | 986.0 |
| 20260905121128 | 75 | 0 | 4.0 | 0.0 | 0.00 | 0.35 | 0.35 | 50 | 986.0 |
| 20260905114128 | 73 | 0 | 4.0 | 0.0 | 0.00 | 0.35 | 0.35 | 54 | 986.0 |
| 20260905111128 | 72 | 0 | 7.0 | 0.0 | 0.00 | 0.35 | 0.35 | 60 | 986.0 |
| 20260905104128 | 71 | 0 | 8.0 | 0.0 | 0.00 | 0.35 | 0.35 | 61 | 986.0 |
| 20260905101128 | 69 | 0 | 1.0 | 0.0 | 0.00 | 0.35 | 0.35 | 71 | 986.0 |
| 20260905094128 | 63 | 0 | 3.0 | 0.0 | 0.00 | 0.35 | 0.35 | 81 | 986.0 |
| 20260905091128 | 62 | 0 | 3.0 | 0.0 | 0.05 | 0.35 | 0.35 | 82 | 986.0 |
| 20260905084128 | 61 | 0 | 0.0 | 0.0 | 0.09 | 0.34 | 0.34 | 83 | 987.0 |
| 20260905081128 | 61 | 0 | 1.0 | 0.0 | 0.10 | 0.29 | 0.29 | 82 | 987.0 |
| 20260905074128 | 60 | 0 | 1.0 | 0.0 | 0.09 | 0.21 | 0.21 | 82 | 987.0 |
| 20260905071128 | 60 | 0 | 3.0 | 0.0 | 0.06 | 0.17 | 0.17 | 80 | 986.0 |
| 20260905064128 | 61 | 0 | 1.0 | 0.0 | 0.02 | 0.11 | 0.11 | 79 | 986.0 |
| 20260905061128 | 62 | 0 | 1.0 | 0.0 | 0.08 | 0.09 | 0.09 | 79 | 985.0 |
| 20260905054128 | 64 | 0 | 2.0 | 0.0 | 0.01 | 0.02 | 0.02 | 69 | 984.0 |
| 20260905051128 | 69 | 0 | 0.0 | 0.0 | 0.00 | 0.00 | 0.00 | 54 | 983.0 |
| 20260905044128 | 70 | 0 | 3.0 | 0.0 | 0.00 | 0.00 | 0.00 | 59 | 982.0 |
| 20260905041128 | 70 | 0 | 1.0 | 0.0 | 0.00 | 0.00 | 0.00 | 65 | 980.0 |
| 20260905034128 | 71 | 0 | 0.0 | 0.0 | 0.00 | 0.00 | 0.00 | 64 | 981.0 |
| 20260905031128 | 71 | 0 | 1.0 | 0.0 | 0.00 | 0.00 | 0.00 | 63 | 981.0 |
| 20260905024128 | 71 | 0 | 1.0 | 0.0 | 0.00 | 0.00 | 0.00 | 64 | 980.0 |
| 20260905021128 | 70 | 0 | 6.0 | 0.0 | 0.00 | 0.00 | 0.00 | 64 | 980.0 |
| 20260905014128 | 70 | 0 | 1.0 | 0.0 | 0.00 | 0.00 | 0.00 | 60 | 979.0 |
| 20260905011128 | 69 | 0 | 1.0 | 0.0 | 0.00 | 0.00 | 0.00 | 59 | 979.0 |
| 20260905004128 | 70 | 0 | 2.0 | 0.0 | 0.00 | 0.00 | 0.00 | 58 | 979.0 |
| 20260905001128 | 70 | 0 | 3.0 | 0.0 | 0.00 | 0.00 | 0.00 | 55 | 978.0 |
| 20260904234128 | 72 | 0 | 3.0 | 0.0 | 0.00 | 0.00 | 0.00 | 51 | 979.0 |
| 20260904231128 | 77 | 0 | 3.0 | 0.0 | 0.00 | 0.00 | 0.00 | 40 | 978.0 |